START_TIME,STEP,MOV.,M6,t_acc.,M7,t_acc.,M19,t_acc.,H36,t_acc.
1980-11-15 15:00:15.690 ,0,0,0.,12.0,0.,12.0,0.,12.0,0.,12.0
1980-11-15 15:00:27.690 ,0,0,0.,12.0,0.,12.0,0.,12.0,0.,12.0
1980-11-15 15:00:39.690 ,1,1,0.,12.0,0.,12.0,0.,12.0,0.,12.0
1980-11-15 15:00:51.690 ,1,1,0.,12.0,0.,12.0,0.,12.0,0.,12.0
1980-11-15 15:01:03.690 ,1,0,0.,12.0,0.,12.0,0.,12.0,0.,12.0
1980-11-15 15:01:15.690 ,1,0,0.,12.0,0.,12.0,0.,12.0,0.,12.0
1980-11-15 15:01:27.690 ,2,1,0.,12.0,0.,12.0,0.,12.0,0.,12.0
1980-11-15 15:01:39.690 ,2,1,0.,12.0,0.,12.0,0.,12.0,0.,12.0
1980-11-15 15:01:51.690 ,2,0,0.,12.0,0.,12.0,0.,12.0,0.,12.0
1980-11-15 15:02:03.690 ,2,0,0.,12.0,0.,12.0,0.,12.0,0.,12.0
1980-11-15 15:02:15.690 ,3,1,0.,12.0,0.,12.0,0.,12.0,0.,12.0
1980-11-15 15:02:27.690 ,3,1,0.,12.0,0.,12.0,0.,12.0,0.,12.0
1980-11-15 15:02:39.690 ,3,0,0.,12.0,0.,12.0,0.,12.0,0.,12.0
1980-11-15 15:02:51.690 ,3,0,0.,12.0,0.,12.0,0.,12.0,0.,12.0
1980-11-15 15:03:03.690 ,4,1,0.,12.0,0.,12.0,0.,12.0,0.,12.0
1980-11-15 15:03:15.690 ,4,1,0.,12.0,0.,12.0,0.,12.0,0.,12.0
1980-11-15 15:03:27.690 ,4,0,0.,12.0,0.,12.0,0.,12.0,0.,12.0
1980-11-15 15:03:39.690 ,4,0,0.,12.0,0.,12.0,0.,12.0,0.,12.0
1980-11-15 15:03:51.690 ,5,1,0.,12.0,0.,12.0,0.,12.0,0.,12.0
1980-11-15 15:04:03.690 ,5,1,0.,12.0,0.,12.0,0.,12.0,0.,12.0
1980-11-15 15:04:15.690 ,5,0,0.,12.0,0.,12.0,0.,12.0,0.,12.0
1980-11-15 15:04:27.690 ,5,0,0.,12.0,0.,12.0,0.,12.0,0.,12.0
1980-11-15 15:04:39.690 ,6,1,0.,12.0,0.,12.0,0.,12.0,0.,12.0
1980-11-15 15:04:51.690 ,6,1,0.,12.0,0.,12.0,0.,12.0,0.,12.0
1980-11-15 15:05:03.690 ,6,0,0.,12.0,0.,12.0,0.,12.0,0.,12.0
1980-11-15 15:05:15.690 ,6,0,0.,12.0,0.,12.0,0.,12.0,0.,12.0
1980-11-15 15:05:27.690 ,7,1,0.,12.0,0.,12.0,0.,12.0,0.,12.0
1980-11-15 15:05:39.690 ,7,1,0.,12.0,0.,12.0,0.,12.0,0.,12.0
1980-11-15 15:05:51.690 ,7,0,0.,12.0,0.,12.0,0.,12.0,0.,12.0
1980-11-15 15:06:03.690 ,7,0,0.,12.0,0.,12.0,0.,12.0,0.,12.0
1980-11-15 15:06:15.690 ,7,1,0.,12.0,0.,12.0,0.,12.0,0.,12.0
1980-11-15 15:06:27.690 ,7,1,0.,12.0,0.,12.0,0.,12.0,0.,12.0
1980-11-15 15:06:39.690 ,7,0,0.,12.0,0.,12.0,0.,12.0,0.,12.0
1980-11-15 15:06:51.690 ,7,0,0.,12.0,0.,12.0,0.,12.0,0.,12.0
1980-11-15 15:07:03.690 ,6,1,0.,12.0,0.,12.0,0.,12.0,0.,12.0
1980-11-15 15:07:15.690 ,6,1,0.,12.0,0.,12.0,0.,12.0,0.,12.0
1980-11-15 15:07:27.690 ,6,0,0.,12.0,0.,12.0,0.,12.0,0.,12.0
1980-11-15 15:07:39.690 ,6,0,0.,12.0,0.,12.0,0.,12.0,0.,12.0
1980-11-15 15:07:51.690 ,5,1,0.,12.0,0.,12.0,0.,12.0,0.,12.0
1980-11-15 15:08:03.690 ,5,1,0.,12.0,0.,12.0,0.,12.0,0.,12.0
1980-11-15 15:08:15.690 ,5,0,0.,12.0,0.,12.0,0.,12.0,0.,12.0
1980-11-15 15:08:27.690 ,5,0,0.,12.0,0.,12.0,0.,12.0,0.,12.0
1980-11-15 15:08:39.690 ,4,1,0.,12.0,0.,12.0,0.,12.0,0.,12.0
1980-11-15 15:08:51.690 ,4,1,0.,12.0,0.,12.0,0.,12.0,0.,12.0
1980-11-15 15:09:03.690 ,4,0,0.,12.0,0.,12.0,0.,12.0,0.,12.0
1980-11-15 15:09:15.690 ,4,0,0.,12.0,0.,12.0,0.,12.0,0.,12.0
1980-11-15 15:09:27.690 ,3,1,0.,12.0,0.,12.0,0.,12.0,0.,12.0
1980-11-15 15:09:39.690 ,3,1,0.,12.0,0.,12.0,0.,12.0,0.,12.0
1980-11-15 15:09:51.690 ,3,0,0.,12.0,0.,12.0,0.,12.0,0.,12.0
1980-11-15 15:10:03.690 ,3,0,0.,12.0,0.,12.0,0.,12.0,0.,12.0
1980-11-15 15:10:15.690 ,2,1,0.,12.0,0.,12.0,0.,12.0,0.,12.0
1980-11-15 15:10:27.690 ,2,1,0.,12.0,0.,12.0,0.,12.0,0.,12.0
1980-11-15 15:10:39.690 ,2,0,0.,12.0,0.,12.0,0.,12.0,0.,12.0
1980-11-15 15:10:51.690 ,2,0,0.,12.0,0.,12.0,0.,12.0,0.,12.0
1980-11-15 15:11:03.690 ,1,1,0.,12.0,0.,12.0,0.,12.0,0.,12.0
1980-11-15 15:11:15.690 ,1,1,0.,12.0,0.,12.0,0.,12.0,0.,12.0
1980-11-15 15:11:27.690 ,1,0,0.,12.0,0.,12.0,0.,12.0,0.,12.0
1980-11-15 15:11:39.690 ,1,0,0.,12.0,0.,12.0,0.,12.0,0.,12.0
1980-11-15 15:11:51.690 ,0,1,0.,12.0,0.,12.0,0.,12.0,0.,12.0
1980-11-15 15:12:03.690 ,0,1,0.,12.0,0.,12.0,0.,12.0,0.,12.0
1980-11-15 15:12:15.690 ,0,0,0.,12.0,0.,12.0,0.,12.0,0.,12.0
1980-11-15 15:12:27.690 ,0,0,0.,12.0,0.,12.0,0.,12.0,0.,12.0
1980-11-15 15:12:39.690 ,0,1,0.,12.0,0.,12.0,0.,12.0,0.,12.0
1980-11-15 15:12:51.690 ,0,1,0.,12.0,0.,12.0,0.,12.0,0.,12.0
1980-11-15 15:13:03.690 ,0,0,0.,12.0,0.,12.0,0.,12.0,0.,12.0
1980-11-15 15:13:15.690 ,0,0,0.,12.0,0.,12.0,0.,12.0,0.,12.0
1980-11-15 15:13:27.690 ,1,1,0.,12.0,0.,12.0,0.,12.0,0.,12.0
1980-11-15 15:13:39.690 ,1,1,0.,12.0,0.,12.0,0.,12.0,0.,12.0
1980-11-15 15:13:51.690 ,1,0,0.,12.0,0.,12.0,0.,12.0,0.,12.0
1980-11-15 15:14:03.690 ,1,0,0.,12.0,0.,12.0,0.,12.0,0.,12.0
1980-11-15 15:14:15.690 ,2,1,0.,12.0,0.,12.0,0.,12.0,0.,12.0
1980-11-15 15:14:27.690 ,2,1,0.,12.0,0.,12.0,0.,12.0,0.,12.0
1980-11-15 15:14:39.690 ,2,0,0.,12.0,0.,12.0,0.,12.0,0.,12.0
1980-11-15 15:14:51.690 ,2,0,0.,12.0,0.,12.0,0.,12.0,0.,12.0
1980-11-15 15:15:03.690 ,3,1,0.,12.0,0.,12.0,0.,12.0,0.,12.0
1980-11-15 15:15:15.690 ,3,1,0.,12.0,0.,12.0,0.,12.0,0.,12.0
1980-11-15 15:15:27.690 ,3,0,0.,12.0,0.,12.0,0.,12.0,0.,12.0
1980-11-15 15:15:39.690 ,3,0,0.,12.0,0.,12.0,0.,12.0,0.,12.0
1980-11-15 15:15:51.690 ,4,1,0.,12.0,0.,12.0,0.,12.0,0.,12.0
1980-11-15 15:16:03.690 ,4,1,0.,12.0,0.,12.0,0.,12.0,0.,12.0
1980-11-15 15:16:15.690 ,4,0,0.,12.0,0.,12.0,0.,12.0,0.,12.0
1980-11-15 15:16:27.690 ,4,0,0.,12.0,0.,12.0,0.,12.0,0.,12.0
1980-11-15 15:16:39.690 ,5,1,0.,12.0,0.,12.0,0.,12.0,0.,12.0
1980-11-15 15:16:51.690 ,5,1,0.,12.0,0.,12.0,0.,12.0,0.,12.0
1980-11-15 15:17:03.690 ,5,0,0.,12.0,0.,12.0,0.,12.0,0.,12.0
1980-11-15 15:17:15.690 ,5,0,0.,12.0,0.,12.0,0.,12.0,0.,12.0
1980-11-15 15:17:27.690 ,6,1,0.,12.0,0.,12.0,0.,12.0,0.,12.0
1980-11-15 15:17:39.690 ,6,1,0.,12.0,0.,12.0,0.,12.0,0.,12.0
1980-11-15 15:17:51.690 ,6,0,0.,12.0,0.,12.0,0.,12.0,0.,12.0
1980-11-15 15:18:03.690 ,6,0,0.,12.0,0.,12.0,0.,12.0,0.,12.0
1980-11-15 15:18:15.690 ,7,1,0.,12.0,0.,12.0,0.,12.0,0.,12.0
1980-11-15 15:18:27.690 ,7,1,0.,12.0,0.,12.0,0.,12.0,0.,12.0
1980-11-15 15:18:39.690 ,7,0,0.,12.0,0.,12.0,0.,12.0,0.,12.0
1980-11-15 15:18:51.690 ,7,0,0.,12.0,0.,12.0,0.,12.0,0.,12.0
1980-11-15 15:19:03.690 ,7,1,0.,12.0,0.,12.0,0.,12.0,0.,12.0
1980-11-15 15:19:15.690 ,7,1,0.,12.0,0.,12.0,0.,12.0,0.,12.0
1980-11-15 15:19:27.690 ,7,0,0.,12.0,0.,12.0,0.,12.0,0.,12.0
1980-11-15 15:19:39.690 ,7,0,0.,12.0,0.,12.0,0.,12.0,0.,12.0
1980-11-15 15:19:51.690 ,6,1,0.,12.0,0.,12.0,0.,12.0,0.,12.0
1980-11-15 15:20:03.690 ,6,1,0.,12.0,0.,12.0,0.,12.0,0.,12.0
1980-11-15 15:20:15.690 ,6,0,0.,12.0,0.,12.0,0.,12.0,0.,12.0
1980-11-15 15:20:27.690 ,6,0,0.,12.0,0.,12.0,0.,12.0,0.,12.0
1980-11-15 15:20:39.690 ,5,1,0.,12.0,0.,12.0,0.,12.0,0.,12.0
1980-11-15 15:20:51.690 ,5,1,0.,12.0,0.,12.0,0.,12.0,0.,12.0
1980-11-15 15:21:03.690 ,5,0,0.,12.0,0.,12.0,0.,12.0,0.,12.0
1980-11-15 15:21:15.690 ,5,0,0.,12.0,0.,12.0,0.,12.0,0.,12.0
1980-11-15 15:21:27.690 ,4,1,0.,12.0,0.,12.0,0.,12.0,0.,12.0
1980-11-15 15:21:39.690 ,4,1,0.,12.0,0.,12.0,0.,12.0,0.,12.0
1980-11-15 15:21:51.690 ,4,0,0.,12.0,0.,12.0,0.,12.0,0.,12.0
1980-11-15 15:22:03.690 ,4,0,0.,12.0,0.,12.0,0.,12.0,0.,12.0
1980-11-15 15:22:15.690 ,3,1,0.,12.0,0.,12.0,0.,12.0,0.,12.0
1980-11-15 15:22:27.690 ,3,1,0.,12.0,0.,12.0,0.,12.0,0.,12.0
1980-11-15 15:22:39.690 ,3,0,0.,12.0,0.,12.0,0.,12.0,0.,12.0
1980-11-15 15:22:51.690 ,3,0,0.,12.0,0.,12.0,0.,12.0,0.,12.0
1980-11-15 15:23:03.690 ,2,1,0.,12.0,0.,12.0,0.,12.0,0.,12.0
1980-11-15 15:23:15.690 ,2,1,0.,12.0,0.,12.0,0.,12.0,0.,12.0
1980-11-15 15:23:27.690 ,2,0,0.,12.0,0.,12.0,0.,12.0,0.,12.0
1980-11-15 15:23:39.690 ,2,0,0.,12.0,0.,12.0,0.,12.0,0.,12.0
1980-11-15 15:23:51.690 ,1,1,0.,12.0,0.,12.0,0.,12.0,0.,12.0
1980-11-15 15:24:03.690 ,1,1,0.,12.0,0.,12.0,0.,12.0,0.,12.0
1980-11-15 15:24:15.690 ,1,0,0.,12.0,0.,12.0,0.,12.0,0.,12.0
1980-11-15 15:24:27.690 ,1,0,0.,12.0,0.,12.0,0.,12.0,0.,12.0
1980-11-15 15:24:39.690 ,0,1,0.,12.0,0.,12.0,0.,12.0,0.,12.0
1980-11-15 15:24:51.690 ,0,1,0.,12.0,0.,12.0,0.,12.0,0.,12.0
1980-11-15 15:25:03.690 ,0,0,0.,12.0,0.,12.0,0.,12.0,0.,12.0
1980-11-15 15:25:15.690 ,0,0,0.,12.0,0.,12.0,0.,12.0,0.,12.0
1980-11-15 15:25:27.690 ,0,1,0.,12.0,0.,12.0,0.,12.0,0.,12.0
1980-11-15 15:25:39.690 ,0,1,0.,12.0,0.,12.0,0.,12.0,0.,12.0
1980-11-15 15:25:51.690 ,0,0,0.,12.0,0.,12.0,0.,12.0,0.,12.0
1980-11-15 15:26:03.690 ,0,0,0.,12.0,0.,12.0,0.,12.0,0.,12.0
1980-11-15 15:26:15.690 ,1,1,0.,12.0,0.,12.0,0.,12.0,0.,12.0
1980-11-15 15:26:27.690 ,1,1,0.,12.0,0.,12.0,0.,12.0,0.,12.0
1980-11-15 15:26:39.690 ,1,0,0.,12.0,0.,12.0,0.,12.0,0.,12.0
1980-11-15 15:26:51.690 ,1,0,0.,12.0,0.,12.0,0.,12.0,0.,12.0
1980-11-15 15:27:03.690 ,2,1,0.,12.0,0.,12.0,0.,12.0,0.,12.0
1980-11-15 15:27:15.690 ,2,1,0.,12.0,0.,12.0,0.,12.0,0.,12.0
1980-11-15 15:27:27.690 ,2,0,0.,12.0,0.,12.0,0.,12.0,0.,12.0
1980-11-15 15:27:39.690 ,2,0,0.,12.0,0.,12.0,0.,12.0,0.,12.0
1980-11-15 15:27:51.690 ,3,1,0.,12.0,0.,12.0,0.,12.0,0.,12.0
1980-11-15 15:28:03.690 ,3,1,0.,12.0,0.,12.0,0.,12.0,0.,12.0
1980-11-15 15:28:15.690 ,3,0,0.,12.0,0.,12.0,0.,12.0,0.,12.0
1980-11-15 15:28:27.690 ,3,0,0.,12.0,0.,12.0,0.,12.0,0.,12.0
1980-11-15 15:28:39.690 ,4,1,0.,12.0,0.,12.0,0.,12.0,0.,12.0
1980-11-15 15:28:51.690 ,4,1,0.,12.0,0.,12.0,0.,12.0,0.,12.0
1980-11-15 15:29:03.690 ,4,0,0.,12.0,0.,12.0,0.,12.0,0.,12.0
1980-11-15 15:29:15.690 ,4,0,0.,12.0,0.,12.0,0.,12.0,0.,12.0
1980-11-15 15:29:27.690 ,5,1,0.,12.0,0.,12.0,0.,12.0,0.,12.0
1980-11-15 15:29:39.690 ,5,1,0.,12.0,0.,12.0,0.,12.0,0.,12.0
1980-11-15 15:29:51.690 ,5,0,0.,12.0,0.,12.0,0.,12.0,0.,12.0
1980-11-15 15:30:03.690 ,5,0,0.,12.0,0.,12.0,0.,12.0,0.,12.0
1980-11-15 15:30:15.690 ,6,1,0.,12.0,0.,12.0,0.,12.0,0.,12.0
1980-11-15 15:30:27.690 ,6,1,0.,12.0,0.,12.0,0.,12.0,0.,12.0
1980-11-15 15:30:39.690 ,6,0,0.,12.0,0.,12.0,0.,12.0,0.,12.0
1980-11-15 15:30:51.690 ,6,0,0.,12.0,0.,12.0,0.,12.0,0.,12.0
1980-11-15 15:31:03.690 ,7,1,0.,12.0,0.,12.0,0.,12.0,0.,12.0
1980-11-15 15:31:15.690 ,7,1,0.,12.0,0.,12.0,0.,12.0,0.,12.0
1980-11-15 15:31:27.690 ,7,0,0.,12.0,0.,12.0,0.,12.0,0.,12.0
1980-11-15 15:31:39.690 ,7,0,0.,12.0,0.,12.0,0.,12.0,0.,12.0
1980-11-15 15:31:51.690 ,7,1,0.,12.0,0.,12.0,0.,12.0,0.,12.0
1980-11-15 15:32:03.690 ,7,1,0.,12.0,0.,12.0,0.,12.0,0.,12.0
1980-11-15 15:32:15.690 ,7,0,0.,12.0,0.,12.0,0.,12.0,0.,12.0
1980-11-15 15:32:27.690 ,7,0,0.,12.0,0.,12.0,0.,12.0,0.,12.0
1980-11-15 15:32:39.690 ,6,1,0.,12.0,0.,12.0,0.,12.0,0.,12.0
1980-11-15 15:32:51.690 ,6,1,0.,12.0,0.,12.0,0.,12.0,0.,12.0
1980-11-15 15:33:03.690 ,6,0,0.,12.0,0.,12.0,0.,12.0,0.,12.0
1980-11-15 15:33:15.690 ,6,0,0.,12.0,0.,12.0,0.,12.0,0.,12.0
1980-11-15 15:33:27.690 ,5,1,0.,12.0,0.,12.0,0.,12.0,0.,12.0
1980-11-15 15:33:39.690 ,5,1,0.,12.0,0.,12.0,0.,12.0,0.,12.0
1980-11-15 15:33:51.690 ,5,0,0.,12.0,0.,12.0,0.,12.0,0.,12.0
1980-11-15 15:34:03.690 ,5,0,0.,12.0,0.,12.0,0.,12.0,0.,12.0
1980-11-15 15:34:15.690 ,4,1,0.,12.0,0.,12.0,0.,12.0,0.,12.0
1980-11-15 15:34:27.690 ,4,1,0.,12.0,0.,12.0,0.,12.0,0.,12.0
1980-11-15 15:34:39.690 ,4,0,0.,12.0,0.,12.0,0.,12.0,0.,12.0
1980-11-15 15:34:51.690 ,4,0,0.,12.0,0.,12.0,0.,12.0,0.,12.0
1980-11-15 15:35:03.690 ,3,1,0.,12.0,0.,12.0,0.,12.0,0.,12.0
1980-11-15 15:35:15.690 ,3,1,0.,12.0,0.,12.0,0.,12.0,0.,12.0
1980-11-15 15:35:27.690 ,3,0,0.,12.0,0.,12.0,0.,12.0,0.,12.0
1980-11-15 15:35:39.690 ,3,0,0.,12.0,0.,12.0,0.,12.0,0.,12.0
1980-11-15 15:35:51.690 ,2,1,0.,12.0,0.,12.0,0.,12.0,0.,12.0
1980-11-15 15:36:03.690 ,2,1,0.,12.0,0.,12.0,0.,12.0,0.,12.0
1980-11-15 15:36:15.690 ,2,0,0.,12.0,0.,12.0,0.,12.0,0.,12.0
1980-11-15 15:36:27.690 ,2,0,0.,12.0,0.,12.0,0.,12.0,0.,12.0
1980-11-15 15:36:39.690 ,1,1,0.,12.0,0.,12.0,0.,12.0,0.,12.0
1980-11-15 15:36:51.690 ,1,1,0.,12.0,0.,12.0,0.,12.0,0.,12.0
1980-11-15 15:37:03.690 ,0,0,0.,12.0,0.,12.0,0.,12.0,0.,12.0
1980-11-15 15:37:15.690 ,0,0,0.,12.0,0.,12.0,0.,12.0,0.,12.0
1980-11-15 15:38:18.090 ,0,0,0.,12.0,0.,12.0,0.,12.0,0.,12.0
1980-11-15 15:38:30.090 ,0,0,0.,12.0,0.,12.0,0.,12.0,0.,12.0
1980-11-15 15:38:39.690 ,0,0,,0,,0,,0,,0
1980-11-15 15:38:51.690 ,0,0,,0,,0,,0,,0
1980-11-15 15:51:42.090 ,0,0,,0,,0,,0,,0
1980-11-15 15:51:54.090 ,0,0,0.,12.0,0.,12.0,0.,12.0,0.,12.0
1980-11-15 15:51:51.690 ,1,1,0.,12.0,0.,12.0,0.,12.0,0.,12.0
1980-11-15 15:52:03.690 ,1,1,0.,12.0,0.,12.0,0.,12.0,0.,12.0
1980-11-15 15:52:15.690 ,1,0,0.,12.0,0.,12.0,0.,12.0,0.,12.0
1980-11-15 15:52:27.690 ,1,0,0.,12.0,0.,12.0,0.,12.0,0.,12.0
1980-11-15 15:52:39.690 ,2,1,0.,12.0,0.,12.0,0.,12.0,0.,12.0
1980-11-15 15:52:51.690 ,2,1,0.,12.0,0.,12.0,0.,12.0,0.,12.0
1980-11-15 15:53:03.690 ,2,0,0.,12.0,0.,12.0,0.,12.0,0.,12.0
1980-11-15 15:53:15.690 ,2,0,0.,12.0,0.,12.0,0.,12.0,0.,12.0
1980-11-15 15:53:27.690 ,3,1,0.,12.0,0.,12.0,0.,12.0,0.,12.0
1980-11-15 15:53:39.690 ,3,1,0.,12.0,0.,12.0,0.,12.0,0.,12.0
1980-11-15 15:53:51.690 ,3,0,0.,12.0,0.,12.0,0.,12.0,0.,12.0
1980-11-15 15:54:03.690 ,3,0,0.,12.0,0.,12.0,0.,12.0,0.,12.0
1980-11-15 15:54:15.690 ,4,1,0.,12.0,0.,12.0,0.,12.0,0.,12.0
1980-11-15 15:54:27.690 ,4,1,0.,12.0,0.,12.0,0.,12.0,0.,12.0
1980-11-15 15:54:39.690 ,4,0,0.,12.0,0.,12.0,0.,12.0,0.,12.0
1980-11-15 15:54:51.690 ,4,0,0.,12.0,0.,12.0,0.,12.0,0.,12.0
1980-11-15 15:55:03.690 ,5,1,0.,12.0,0.,12.0,0.,12.0,0.,12.0
1980-11-15 15:55:15.690 ,5,1,0.,12.0,0.,12.0,0.,12.0,0.,12.0
1980-11-15 15:55:27.690 ,5,0,0.,12.0,0.,12.0,0.,12.0,0.,12.0
1980-11-15 15:55:39.690 ,5,0,0.,12.0,0.,12.0,0.,12.0,0.,12.0
1980-11-15 15:55:51.690 ,6,1,0.,12.0,0.,12.0,0.,12.0,0.,12.0
1980-11-15 15:56:03.690 ,6,1,0.,12.0,0.,12.0,0.,12.0,0.,12.0
1980-11-15 15:56:15.690 ,6,0,0.,12.0,0.,12.0,0.,12.0,0.,12.0
1980-11-15 15:56:27.690 ,6,0,0.,12.0,0.,12.0,0.,12.0,0.,12.0
1980-11-15 15:56:39.690 ,7,1,0.,12.0,0.,12.0,0.,12.0,0.,12.0
1980-11-15 15:56:51.690 ,7,1,0.,12.0,0.,12.0,0.,12.0,0.,12.0
1980-11-15 15:57:03.690 ,7,0,0.,12.0,0.,12.0,0.,12.0,0.,12.0
1980-11-15 15:57:15.690 ,7,0,0.,12.0,0.,12.0,0.,12.0,0.,12.0
1980-11-15 15:57:27.690 ,7,1,0.,12.0,0.,12.0,0.,12.0,0.,12.0
1980-11-15 15:57:39.690 ,7,1,0.,12.0,0.,12.0,0.,12.0,0.,12.0
1980-11-15 15:57:51.690 ,7,0,0.,12.0,0.,12.0,0.,12.0,0.,12.0
1980-11-15 15:58:03.690 ,7,0,0.,12.0,0.,12.0,0.,12.0,0.,12.0
1980-11-15 15:58:15.690 ,6,1,0.,12.0,0.,12.0,0.,12.0,0.,12.0
1980-11-15 15:58:27.690 ,6,1,0.,12.0,0.,12.0,0.,12.0,0.,12.0
1980-11-15 15:58:39.690 ,6,0,0.,12.0,0.,12.0,0.,12.0,0.,12.0
1980-11-15 15:58:51.690 ,6,0,0.,12.0,0.,12.0,0.,12.0,0.,12.0
1980-11-15 15:59:03.690 ,5,1,0.,12.0,0.,12.0,0.,12.0,0.,12.0
1980-11-15 15:59:15.690 ,5,1,0.,12.0,0.,12.0,0.,12.0,0.,12.0
1980-11-15 15:59:27.690 ,5,0,0.,12.0,0.,12.0,0.,12.0,0.,12.0
1980-11-15 15:59:39.690 ,5,0,0.,12.0,0.,12.0,0.,12.0,0.,12.0
1980-11-15 15:59:51.690 ,4,1,0.,12.0,0.,12.0,0.,12.0,0.,12.0
1980-11-15 16:00:03.690 ,4,1,0.,12.0,0.,12.0,0.,12.0,0.,12.0
1980-11-15 16:00:15.690 ,0,0,0.,12.0,0.,12.0,0.,12.0,0.,12.0
1980-11-15 16:00:27.690 ,0,0,0.,12.0,0.,12.0,0.,12.0,0.,12.0
1980-11-15 16:03:21.090 ,0,0,,0,,0,,0,,0
1980-11-15 16:03:33.090 ,0,0,,0,,0,,0,,0
1980-11-15 16:03:27.690 ,0,0,0.,12.0,0.,12.0,0.,12.0,0.,12.0
1980-11-15 16:03:39.690 ,0,0,0.,12.0,0.,12.0,0.,12.0,0.,12.0
1980-11-15 16:03:51.690 ,0,1,0.,12.0,0.,12.0,0.,12.0,0.,12.0
1980-11-15 16:04:03.690 ,0,1,0.,12.0,0.,12.0,0.,12.0,0.,12.0
1980-11-15 16:04:15.690 ,0,0,0.,12.0,0.,12.0,0.,12.0,0.,12.0
1980-11-15 16:04:27.690 ,0,0,0.,12.0,0.,12.0,0.,12.0,0.,12.0
1980-11-15 16:04:39.690 ,1,1,0.,12.0,0.,12.0,0.,12.0,0.,12.0
1980-11-15 16:04:51.690 ,1,1,0.,12.0,0.,12.0,0.,12.0,0.,12.0
1980-11-15 16:05:03.690 ,1,0,0.,12.0,0.,12.0,0.,12.0,0.,12.0
1980-11-15 16:05:15.690 ,1,0,0.,12.0,0.,12.0,0.,12.0,0.,12.0
1980-11-15 16:05:27.690 ,2,1,0.,12.0,0.,12.0,0.,12.0,0.,12.0
1980-11-15 16:05:39.690 ,2,1,0.,12.0,0.,12.0,0.,12.0,0.,12.0
1980-11-15 16:05:51.690 ,2,0,0.,12.0,0.,12.0,0.,12.0,0.,12.0
1980-11-15 16:06:03.690 ,2,0,0.,12.0,0.,12.0,0.,12.0,0.,12.0
1980-11-15 16:06:15.690 ,3,1,0.,12.0,0.,12.0,0.,12.0,0.,12.0
1980-11-15 16:06:27.690 ,3,1,0.,12.0,0.,12.0,0.,12.0,0.,12.0
1980-11-15 16:06:39.690 ,3,0,0.,12.0,0.,12.0,0.,12.0,0.,12.0
1980-11-15 16:06:51.690 ,3,0,0.,12.0,0.,12.0,0.,12.0,0.,12.0
1980-11-15 16:07:03.690 ,4,1,0.,12.0,0.,12.0,0.,12.0,0.,12.0
1980-11-15 16:07:15.690 ,4,1,0.,12.0,0.,12.0,0.,12.0,0.,12.0
1980-11-15 16:07:27.690 ,4,0,0.,12.0,0.,12.0,0.,12.0,0.,12.0
1980-11-15 16:07:39.690 ,4,0,0.,12.0,0.,12.0,0.,12.0,0.,12.0
1980-11-15 16:07:51.690 ,5,1,0.,12.0,0.,12.0,0.,12.0,0.,12.0
1980-11-15 16:08:03.690 ,5,1,0.,12.0,0.,12.0,0.,12.0,0.,12.0
1980-11-15 16:08:15.690 ,5,0,0.,12.0,0.,12.0,0.,12.0,0.,12.0
1980-11-15 16:08:27.690 ,5,0,0.,12.0,0.,12.0,0.,12.0,0.,12.0
1980-11-15 16:08:39.690 ,6,1,0.,12.0,0.,12.0,0.,12.0,0.,12.0
1980-11-15 16:08:51.690 ,6,1,0.,12.0,0.,12.0,0.,12.0,0.,12.0
1980-11-15 16:09:03.690 ,6,0,0.,12.0,0.,12.0,0.,12.0,0.,12.0
1980-11-15 16:09:15.690 ,6,0,0.,12.0,0.,12.0,0.,12.0,0.,12.0
1980-11-15 16:09:27.690 ,7,1,0.,12.0,0.,12.0,0.,12.0,0.,12.0
1980-11-15 16:09:39.690 ,7,1,0.,12.0,0.,12.0,0.,12.0,0.,12.0
1980-11-15 16:09:51.690 ,7,0,0.,12.0,0.,12.0,0.,12.0,0.,12.0
1980-11-15 16:10:03.690 ,7,0,0.,12.0,0.,12.0,0.,12.0,0.,12.0
1980-11-15 16:10:15.690 ,7,1,0.,12.0,0.,12.0,0.,12.0,0.,12.0
1980-11-15 16:10:27.690 ,7,1,0.,12.0,0.,12.0,0.,12.0,0.,12.0
1980-11-15 16:10:39.690 ,7,0,0.,12.0,0.,12.0,0.,12.0,0.,12.0
1980-11-15 16:10:51.690 ,7,0,0.,12.0,0.,12.0,0.,12.0,0.,12.0
1980-11-15 16:11:03.690 ,6,1,0.,12.0,0.,12.0,0.,12.0,0.,12.0
1980-11-15 16:11:15.690 ,6,1,0.,12.0,0.,12.0,0.,12.0,0.,12.0
1980-11-15 16:11:27.690 ,6,0,0.,12.0,0.,12.0,0.,12.0,0.,12.0
1980-11-15 16:11:39.690 ,6,0,0.,12.0,0.,12.0,0.,12.0,0.,12.0
1980-11-15 16:11:51.690 ,5,1,0.,12.0,0.,12.0,0.,12.0,0.,12.0
1980-11-15 16:12:03.690 ,5,1,0.,12.0,0.,12.0,0.,12.0,0.,12.0
1980-11-15 16:12:15.690 ,5,0,0.,12.0,0.,12.0,0.,12.0,0.,12.0
1980-11-15 16:12:27.690 ,5,0,0.,12.0,0.,12.0,0.,12.0,0.,12.0
1980-11-15 16:12:39.690 ,4,1,0.,12.0,0.,12.0,0.,12.0,0.,12.0
1980-11-15 16:12:51.690 ,4,1,0.,12.0,0.,12.0,0.,12.0,0.,12.0
1980-11-15 16:13:03.690 ,4,0,0.,12.0,0.,12.0,0.,12.0,0.,12.0
1980-11-15 16:13:15.690 ,4,0,0.,12.0,0.,12.0,0.,12.0,0.,12.0
1980-11-15 16:13:27.690 ,3,1,0.,12.0,0.,12.0,0.,12.0,0.,12.0
1980-11-15 16:13:39.690 ,3,1,0.,12.0,0.,12.0,0.,12.0,0.,12.0
1980-11-15 16:13:51.690 ,3,0,0.,12.0,0.,12.0,0.,12.0,0.,12.0
1980-11-15 16:14:03.690 ,3,0,0.,12.0,0.,12.0,0.,12.0,0.,12.0
1980-11-15 16:15:03.690 ,0,0,0.,12.0,0.,12.0,0.,12.0,0.,12.0
1980-11-15 16:15:15.690 ,0,0,0.,12.0,0.,12.0,0.,12.0,0.,12.0
1980-11-15 16:15:27.690 ,0,0,0.,12.0,0.,12.0,0.,12.0,0.,12.0
1980-11-15 16:15:39.690 ,0,0,0.,12.0,0.,12.0,0.,12.0,0.,12.0
1980-11-15 16:15:51.690 ,0,1,0.,12.0,0.,12.0,0.,12.0,0.,12.0
1980-11-15 16:16:03.690 ,0,1,0.,12.0,0.,12.0,0.,12.0,0.,12.0
1980-11-15 16:16:15.690 ,0,0,0.,12.0,0.,12.0,0.,12.0,0.,12.0
1980-11-15 16:16:27.690 ,0,0,0.,12.0,0.,12.0,0.,12.0,0.,12.0
1980-11-15 16:16:39.690 ,0,1,0.,12.0,0.,12.0,0.,12.0,0.,12.0
1980-11-15 16:16:51.690 ,0,1,0.,12.0,0.,12.0,0.,12.0,0.,12.0
1980-11-15 16:17:03.690 ,0,0,0.,12.0,0.,12.0,0.,12.0,0.,12.0
1980-11-15 16:17:15.690 ,0,0,0.,12.0,0.,12.0,0.,12.0,0.,12.0
1980-11-15 16:17:27.690 ,1,1,0.,12.0,0.,12.0,0.,12.0,0.,12.0
1980-11-15 16:17:39.690 ,1,1,0.,12.0,0.,12.0,0.,12.0,0.,12.0
1980-11-15 16:17:51.690 ,1,0,0.,12.0,0.,12.0,0.,12.0,0.,12.0
1980-11-15 16:18:03.690 ,1,0,0.,12.0,0.,12.0,0.,12.0,0.,12.0
1980-11-15 16:18:15.690 ,2,1,0.,12.0,0.,12.0,0.,12.0,0.,12.0
1980-11-15 16:18:27.690 ,2,1,0.,12.0,0.,12.0,0.,12.0,0.,12.0
1980-11-15 16:18:39.690 ,2,0,0.,12.0,0.,12.0,0.,12.0,0.,12.0
1980-11-15 16:18:51.690 ,2,0,0.,12.0,0.,12.0,0.,12.0,0.,12.0
1980-11-15 16:19:03.690 ,3,1,0.,12.0,0.,12.0,0.,12.0,0.,12.0
1980-11-15 16:19:15.690 ,3,1,0.,12.0,0.,12.0,0.,12.0,0.,12.0
1980-11-15 16:19:27.690 ,3,0,0.,12.0,0.,12.0,0.,12.0,0.,12.0
1980-11-15 16:19:39.690 ,3,0,0.,12.0,0.,12.0,0.,12.0,0.,12.0
1980-11-15 16:19:51.690 ,4,1,0.,12.0,0.,12.0,0.,12.0,0.,12.0
1980-11-15 16:20:03.690 ,4,1,0.,12.0,0.,12.0,0.,12.0,0.,12.0
1980-11-15 16:20:15.690 ,4,0,0.,12.0,0.,12.0,0.,12.0,0.,12.0
1980-11-15 16:20:27.690 ,4,0,0.,12.0,0.,12.0,0.,12.0,0.,12.0
1980-11-15 16:20:39.690 ,5,1,0.,12.0,0.,12.0,0.,12.0,0.,12.0
1980-11-15 16:20:51.690 ,5,1,0.,12.0,0.,12.0,0.,12.0,0.,12.0
1980-11-15 16:21:03.690 ,5,0,0.,12.0,0.,12.0,0.,12.0,0.,12.0
1980-11-15 16:21:15.690 ,5,0,0.,12.0,0.,12.0,0.,12.0,0.,12.0
1980-11-15 16:21:27.690 ,6,1,0.,12.0,0.,12.0,0.,12.0,0.,12.0
1980-11-15 16:21:39.690 ,6,1,0.,12.0,0.,12.0,0.,12.0,0.,12.0
1980-11-15 16:21:51.690 ,6,0,0.,12.0,0.,12.0,0.,12.0,0.,12.0
1980-11-15 16:22:03.690 ,6,0,0.,12.0,0.,12.0,0.,12.0,0.,12.0
1980-11-15 16:22:15.690 ,7,1,0.,12.0,0.,12.0,0.,12.0,0.,12.0
1980-11-15 16:22:27.690 ,7,1,0.,12.0,0.,12.0,0.,12.0,0.,12.0
1980-11-15 16:22:39.690 ,7,0,0.,12.0,0.,12.0,0.,12.0,0.,12.0
1980-11-15 16:22:51.690 ,7,0,0.,12.0,0.,12.0,0.,12.0,0.,12.0
1980-11-15 16:23:03.690 ,7,1,0.,12.0,0.,12.0,0.,12.0,0.,12.0
1980-11-15 16:23:15.690 ,7,1,0.,12.0,0.,12.0,0.,12.0,0.,12.0
1980-11-15 16:23:27.690 ,7,0,0.,12.0,0.,12.0,0.,12.0,0.,12.0
1980-11-15 16:23:39.690 ,7,0,0.,12.0,0.,12.0,0.,12.0,0.,12.0
1980-11-15 16:23:51.690 ,6,1,0.,12.0,0.,12.0,0.,12.0,0.,12.0
1980-11-15 16:24:03.690 ,6,1,0.,12.0,0.,12.0,0.,12.0,0.,12.0
1980-11-15 16:24:15.690 ,6,0,0.,12.0,0.,12.0,0.,12.0,0.,12.0
1980-11-15 16:24:27.690 ,6,0,0.,12.0,0.,12.0,0.,12.0,0.,12.0
1980-11-15 16:24:39.690 ,5,1,,0,,0,,0,,0
1980-11-15 16:24:51.690 ,5,1,0.,12.0,0.,12.0,0.,12.0,0.,12.0
1980-11-15 16:25:03.690 ,5,0,0.,12.0,0.,12.0,0.,12.0,0.,12.0
1980-11-15 16:25:15.690 ,5,0,0.,12.0,0.,12.0,0.,12.0,0.,12.0
1980-11-15 16:25:27.690 ,4,1,0.,12.0,0.,12.0,0.,12.0,0.,12.0
1980-11-15 16:25:39.690 ,4,1,0.,12.0,0.,12.0,0.,12.0,0.,12.0
1980-11-15 16:25:51.690 ,4,0,0.,12.0,0.,12.0,0.,12.0,0.,12.0
1980-11-15 16:26:03.690 ,4,0,0.,12.0,0.,12.0,0.,12.0,0.,12.0
1980-11-15 16:26:15.690 ,3,1,0.,12.0,0.,12.0,0.,12.0,0.,12.0
1980-11-15 16:26:27.690 ,3,1,0.,12.0,0.,12.0,0.,12.0,0.,12.0
1980-11-15 16:26:39.690 ,3,0,0.,12.0,0.,12.0,0.,12.0,0.,12.0
1980-11-15 16:26:51.690 ,3,0,0.,12.0,0.,12.0,0.,12.0,0.,12.0
1980-11-15 16:27:03.690 ,2,1,0.,12.0,0.,12.0,0.,12.0,0.,12.0
1980-11-15 16:27:15.690 ,2,1,0.,12.0,0.,12.0,0.,12.0,0.,12.0
1980-11-15 16:27:27.690 ,2,0,0.,12.0,0.,12.0,0.,12.0,0.,12.0
1980-11-15 16:27:39.690 ,2,0,0.,12.0,0.,12.0,0.,12.0,0.,12.0
1980-11-15 16:27:51.690 ,1,1,0.,12.0,0.,12.0,0.,12.0,0.,12.0
1980-11-15 16:28:03.690 ,1,1,0.,12.0,0.,12.0,0.,12.0,0.,12.0
1980-11-15 16:28:15.690 ,1,0,0.,12.0,0.,12.0,0.,12.0,0.,12.0
1980-11-15 16:28:27.690 ,1,0,0.,12.0,0.,12.0,0.,12.0,0.,12.0
1980-11-15 16:28:39.690 ,0,1,0.,12.0,0.,12.0,0.,12.0,0.,12.0
1980-11-15 16:28:51.690 ,0,1,0.,12.0,0.,12.0,0.,12.0,0.,12.0
1980-11-15 16:29:03.690 ,0,0,0.,12.0,0.,12.0,0.,12.0,0.,12.0
1980-11-15 16:29:15.690 ,0,0,0.,12.0,0.,12.0,0.,12.0,0.,12.0
1980-11-15 16:29:27.690 ,0,1,0.,12.0,0.,12.0,0.,12.0,0.,12.0
1980-11-15 16:29:39.690 ,0,1,0.,12.0,0.,12.0,0.,12.0,0.,12.0
1980-11-15 16:29:51.690 ,0,0,0.,12.0,0.,12.0,0.,12.0,0.,12.0
1980-11-15 16:30:03.690 ,0,0,0.,12.0,0.,12.0,0.,12.0,0.,12.0
1980-11-15 16:30:15.690 ,1,1,0.,12.0,0.,12.0,0.,12.0,0.,12.0
1980-11-15 16:30:27.690 ,1,1,0.,12.0,0.,12.0,0.,12.0,0.,12.0
1980-11-15 16:30:39.690 ,1,0,0.,12.0,0.,12.0,0.,12.0,0.,12.0
1980-11-15 16:30:51.690 ,1,0,0.,12.0,0.,12.0,0.,12.0,0.,12.0
1980-11-15 16:31:03.690 ,2,1,0.,12.0,0.,12.0,0.,12.0,0.,12.0
1980-11-15 16:31:15.690 ,2,1,0.,12.0,0.,12.0,0.,12.0,0.,12.0
1980-11-15 16:31:27.690 ,2,0,0.,12.0,0.,12.0,0.,12.0,0.,12.0
1980-11-15 16:31:39.690 ,2,0,0.,12.0,0.,12.0,0.,12.0,0.,12.0
1980-11-15 16:31:51.690 ,3,1,0.,12.0,0.,12.0,0.,12.0,0.,12.0
1980-11-15 16:32:03.690 ,3,1,0.,12.0,0.,12.0,0.,12.0,0.,12.0
1980-11-15 16:32:15.690 ,3,0,0.,12.0,0.,12.0,0.,12.0,0.,12.0
1980-11-15 16:32:27.690 ,3,0,0.,12.0,0.,12.0,0.,12.0,0.,12.0
1980-11-15 16:32:39.690 ,4,1,0.,12.0,0.,12.0,0.,12.0,0.,12.0
1980-11-15 16:32:51.690 ,4,1,0.,12.0,0.,12.0,0.,12.0,0.,12.0
1980-11-15 16:33:03.690 ,4,0,0.,12.0,0.,12.0,0.,12.0,0.,12.0
1980-11-15 16:33:15.690 ,4,0,0.,12.0,0.,12.0,0.,12.0,0.,12.0
1980-11-15 16:33:27.690 ,5,1,0.,12.0,0.,12.0,0.,12.0,0.,12.0
1980-11-15 16:33:39.690 ,5,1,0.,12.0,0.,12.0,0.,12.0,0.,12.0
1980-11-15 16:33:51.690 ,5,0,0.,12.0,0.,12.0,0.,12.0,0.,12.0
1980-11-15 16:34:03.690 ,5,0,0.,12.0,0.,12.0,0.,12.0,0.,12.0